| time (UTC) | temp F | wind direction | speed MPH | gust MPH | rain 1hr in | rain 24hr in | rain mn in | humidity % | barometer mb |
| 20260508060404 | 49 | 153 | 2.0 | 7.0 | 0.00 | 0.00 | 0.00 | 87 | 1016.7 |
| 20260508054905 | 49 | 126 | 2.0 | 3.0 | 0.00 | 0.00 | 0.00 | 88 | 1016.7 |
| 20260508054404 | 49 | 128 | 1.0 | 3.0 | 0.00 | 0.00 | 0.00 | 87 | 1016.7 |
| 20260508053904 | 48 | 134 | 2.0 | 3.0 | 0.00 | 0.00 | 0.00 | 88 | 1016.6 |
| 20260508052905 | 48 | 124 | 1.0 | 3.0 | 0.00 | 0.00 | 0.00 | 88 | 1016.7 |
| 20260508051903 | 48 | 127 | 2.0 | 3.0 | 0.00 | 0.00 | 0.00 | 88 | 1016.6 |
| 20260508051404 | 48 | 133 | 1.0 | 3.0 | 0.00 | 0.00 | 0.00 | 88 | 1016.5 |
| 20260508050904 | 48 | 120 | 2.0 | 3.0 | 0.00 | 0.00 | 0.00 | 88 | 1016.5 |
| 20260508050405 | 48 | 134 | 0.0 | 2.0 | 0.00 | 0.00 | 0.00 | 88 | 1016.5 |
| 20260508045904 | 48 | 123 | 1.0 | 2.0 | 0.00 | 0.00 | 0.00 | 87 | 1016.5 |
| 20260508045404 | 48 | 117 | 0.0 | 2.0 | 0.00 | 0.00 | 0.00 | 87 | 1016.5 |
| 20260508044904 | 48 | 117 | 0.0 | 1.0 | 0.00 | 0.00 | 0.00 | 87 | 1016.5 |
| 20260508044404 | 48 | 117 | 0.0 | 2.0 | 0.00 | 0.00 | 0.00 | 87 | 1016.4 |
| 20260508043905 | 48 | 114 | 0.0 | 2.0 | 0.00 | 0.00 | 0.00 | 87 | 1016.4 |
| 20260508043404 | 48 | 107 | 1.0 | 3.0 | 0.00 | 0.00 | 0.00 | 87 | 1016.4 |
| 20260508042904 | 48 | 110 | 0.0 | 3.0 | 0.00 | 0.00 | 0.00 | 87 | 1016.4 |
| 20260508041904 | 48 | 125 | 1.0 | 3.0 | 0.00 | 0.00 | 0.00 | 86 | 1016.4 |
| 20260508040904 | 48 | 134 | 0.0 | 1.0 | 0.00 | 0.00 | 0.00 | 86 | 1016.3 |
| 20260508035904 | 48 | 134 | 0.0 | 2.0 | 0.00 | 0.00 | 0.00 | 85 | 1016.3 |
| 20260508034904 | 49 | 134 | 0.0 | 1.0 | 0.00 | 0.00 | 0.00 | 86 | 1016.2 |
| 20260508034404 | 49 | 134 | 0.0 | 2.0 | 0.00 | 0.00 | 0.00 | 85 | 1016.3 |
| 20260508033904 | 49 | 134 | 0.0 | 2.0 | 0.00 | 0.00 | 0.00 | 85 | 1016.2 |
| 20260508033403 | 49 | 134 | 0.0 | 2.0 | 0.00 | 0.00 | 0.00 | 85 | 1016.2 |
| 20260508032904 | 49 | 134 | 0.0 | 1.0 | 0.00 | 0.00 | 0.00 | 85 | 1016.2 |
| 20260508032404 | 49 | 134 | 0.0 | 1.0 | 0.00 | 0.00 | 0.00 | 85 | 1016.3 |
| 20260508031404 | 49 | 109 | 0.0 | 2.0 | 0.00 | 0.00 | 0.00 | 85 | 1016.3 |
| 20260508030903 | 49 | 105 | 0.0 | 3.0 | 0.00 | 0.00 | 0.00 | 85 | 1016.2 |
| 20260508030404 | 49 | 133 | 1.0 | 3.0 | 0.00 | 0.00 | 0.00 | 85 | 1016.3 |
| 20260508025904 | 49 | 142 | 2.0 | 3.0 | 0.00 | 0.00 | 0.00 | 85 | 1016.3 |
| 20260508025404 | 49 | 162 | 1.0 | 3.0 | 0.00 | 0.00 | 0.00 | 84 | 1016.3 |
| 20260508024904 | 49 | 133 | 2.0 | 3.0 | 0.00 | 0.00 | 0.00 | 84 | 1016.3 |
| 20260508024404 | 49 | 135 | 1.0 | 3.0 | 0.00 | 0.00 | 0.00 | 84 | 1016.3 |
| 20260508023903 | 49 | 156 | 1.0 | 3.0 | 0.00 | 0.00 | 0.00 | 84 | 1016.4 |
| 20260508022905 | 49 | 140 | 1.0 | 3.0 | 0.00 | 0.00 | 0.00 | 84 | 1016.4 |
| 20260508021904 | 50 | 135 | 1.0 | 2.0 | 0.00 | 0.00 | 0.00 | 84 | 1016.4 |
| 20260508021404 | 50 | 145 | 1.0 | 2.0 | 0.00 | 0.00 | 0.00 | 84 | 1016.3 |
| 20260508020904 | 50 | 145 | 0.0 | 2.0 | 0.00 | 0.00 | 0.00 | 84 | 1016.3 |
| 20260508015904 | 50 | 144 | 0.0 | 2.0 | 0.00 | 0.00 | 0.00 | 83 | 1016.3 |
| 20260508015404 | 50 | 149 | 0.0 | 2.0 | 0.00 | 0.00 | 0.00 | 83 | 1016.3 |
| 20260508014904 | 50 | 171 | 1.0 | 3.0 | 0.00 | 0.00 | 0.00 | 83 | 1016.2 |
| 20260508014404 | 50 | 148 | 1.0 | 3.0 | 0.00 | 0.00 | 0.00 | 83 | 1016.2 |
| 20260508013903 | 50 | 116 | 1.0 | 3.0 | 0.00 | 0.00 | 0.00 | 83 | 1016.2 |
| 20260508013404 | 50 | 173 | 1.0 | 2.0 | 0.00 | 0.00 | 0.00 | 83 | 1016.2 |
| 20260508012904 | 50 | 142 | 1.0 | 3.0 | 0.00 | 0.00 | 0.00 | 83 | 1016.2 |
| 20260508012404 | 50 | 146 | 2.0 | 3.0 | 0.00 | 0.00 | 0.00 | 82 | 1016.2 |
| 20260508011904 | 50 | 150 | 2.0 | 3.0 | 0.00 | 0.00 | 0.00 | 82 | 1016.2 |
| 20260508011404 | 50 | 161 | 2.0 | 3.0 | 0.00 | 0.00 | 0.00 | 82 | 1016.2 |
| 20260508010904 | 50 | 145 | 1.0 | 3.0 | 0.00 | 0.00 | 0.00 | 82 | 1016.2 |
| 20260508010404 | 50 | 120 | 2.0 | 3.0 | 0.00 | 0.00 | 0.00 | 82 | 1016.2 |
| 20260508005904 | 50 | 130 | 1.0 | 3.0 | 0.00 | 0.00 | 0.00 | 82 | 1016.2 |
| 20260508005404 | 50 | 105 | 1.0 | 3.0 | 0.00 | 0.00 | 0.00 | 82 | 1016.2 |
| 20260508004903 | 50 | 115 | 1.0 | 3.0 | 0.00 | 0.00 | 0.00 | 82 | 1016.3 |
| 20260508004404 | 50 | 129 | 1.0 | 3.0 | 0.00 | 0.00 | 0.00 | 81 | 1016.2 |
| 20260508002404 | 50 | 193 | 0.0 | 3.0 | 0.00 | 0.00 | 0.00 | 81 | 1016.4 |
| 20260508001904 | 50 | 182 | 2.0 | 3.0 | 0.00 | 0.00 | 0.00 | 81 | 1016.4 |
| 20260508001404 | 50 | 125 | 2.0 | 3.0 | 0.00 | 0.00 | 0.00 | 80 | 1016.3 |
| 20260508000904 | 50 | 137 | 1.0 | 3.0 | 0.00 | 0.00 | 0.00 | 80 | 1016.4 |
| 20260508000405 | 50 | 129 | 1.0 | 3.0 | 0.00 | 0.00 | 0.00 | 80 | 1016.4 |
| 20260507235904 | 50 | 125 | 1.0 | 3.0 | 0.00 | 0.00 | 0.00 | 80 | 1016.5 |
| 20260507235404 | 50 | 135 | 2.0 | 3.0 | 0.00 | 0.00 | 0.00 | 80 | 1016.5 |
| 20260507234904 | 50 | 150 | 2.0 | 3.0 | 0.00 | 0.00 | 0.00 | 79 | 1016.6 |
| 20260507233903 | 51 | 148 | 3.0 | 3.0 | 0.00 | 0.00 | 0.00 | 79 | 1016.6 |
| 20260507233404 | 51 | 150 | 1.0 | 3.0 | 0.00 | 0.00 | 0.00 | 79 | 1016.6 |
| 20260507231904 | 51 | 128 | 2.0 | 5.0 | 0.00 | 0.00 | 0.00 | 78 | 1016.6 |
| 20260507231404 | 51 | 144 | 3.0 | 5.0 | 0.00 | 0.00 | 0.00 | 78 | 1016.6 |
| 20260507230904 | 51 | 156 | 2.0 | 5.0 | 0.00 | 0.00 | 0.00 | 78 | 1016.6 |
| 20260507230404 | 51 | 140 | 3.0 | 7.0 | 0.00 | 0.00 | 0.00 | 77 | 1016.6 |
| 20260507225904 | 51 | 149 | 4.0 | 7.0 | 0.00 | 0.00 | 0.00 | 77 | 1016.6 |
| 20260507225405 | 51 | 161 | 3.0 | 8.0 | 0.00 | 0.00 | 0.00 | 77 | 1016.6 |
| 20260507224904 | 51 | 146 | 3.0 | 8.0 | 0.00 | 0.00 | 0.00 | 76 | 1016.7 |
| 20260507224403 | 52 | 147 | 4.0 | 9.0 | 0.00 | 0.00 | 0.00 | 76 | 1016.8 |
| 20260507223404 | 52 | 131 | 3.0 | 7.0 | 0.00 | 0.00 | 0.00 | 76 | 1016.7 |
| 20260507222904 | 52 | 126 | 2.0 | 7.0 | 0.00 | 0.00 | 0.00 | 75 | 1016.8 |
| 20260507221904 | 52 | 138 | 3.0 | 9.0 | 0.00 | 0.00 | 0.00 | 75 | 1016.7 |
| 20260507221404 | 52 | 133 | 5.0 | 9.0 | 0.00 | 0.00 | 0.00 | 75 | 1016.7 |
| 20260507220904 | 52 | 130 | 3.0 | 9.0 | 0.00 | 0.00 | 0.00 | 74 | 1016.6 |
| 20260507220404 | 52 | 122 | 5.0 | 9.0 | 0.00 | 0.00 | 0.00 | 74 | 1016.7 |
| 20260507215911 | 52 | 119 | 3.0 | 9.0 | 0.00 | 0.00 | 0.00 | 74 | 1016.7 |
| 20260507215405 | 53 | 125 | 3.0 | 9.0 | 0.00 | 0.00 | 0.00 | 74 | 1016.8 |
| 20260507214904 | 53 | 143 | 4.0 | 8.0 | 0.00 | 0.00 | 0.00 | 74 | 1016.7 |
| 20260507214403 | 53 | 136 | 3.0 | 9.0 | 0.00 | 0.01 | 0.00 | 74 | 1016.7 |
| 20260507213904 | 53 | 141 | 4.0 | 9.0 | 0.00 | 0.01 | 0.00 | 74 | 1016.7 |
| 20260507212905 | 53 | 152 | 3.0 | 8.0 | 0.00 | 0.01 | 0.00 | 73 | 1016.7 |
| 20260507212403 | 53 | 174 | 3.0 | 8.0 | 0.00 | 0.01 | 0.00 | 73 | 1016.7 |
| 20260507211904 | 53 | 142 | 5.0 | 8.0 | 0.00 | 0.01 | 0.00 | 73 | 1016.7 |
| 20260507211403 | 53 | 135 | 3.0 | 9.0 | 0.00 | 0.01 | 0.00 | 73 | 1016.6 |
| 20260507210903 | 53 | 148 | 3.0 | 9.0 | 0.00 | 0.01 | 0.00 | 73 | 1016.6 |
| 20260507205904 | 53 | 127 | 3.0 | 9.0 | 0.00 | 0.01 | 0.00 | 72 | 1016.5 |
| 20260507205404 | 54 | 145 | 5.0 | 9.0 | 0.00 | 0.01 | 0.00 | 72 | 1016.5 |
| 20260507203904 | 54 | 137 | 4.0 | 9.0 | 0.00 | 0.01 | 0.00 | 71 | 1016.5 |
| 20260507203404 | 54 | 126 | 4.0 | 9.0 | 0.00 | 0.01 | 0.00 | 71 | 1016.4 |
| 20260507202904 | 54 | 130 | 4.0 | 9.0 | 0.00 | 0.01 | 0.00 | 70 | 1016.3 |
| 20260507202404 | 54 | 135 | 4.0 | 10.0 | 0.00 | 0.01 | 0.00 | 70 | 1016.3 |
| 20260507201904 | 54 | 137 | 5.0 | 12.0 | 0.00 | 0.01 | 0.00 | 70 | 1016.2 |
| 20260507201403 | 55 | 151 | 5.0 | 12.0 | 0.00 | 0.01 | 0.00 | 69 | 1016.1 |
| 20260507200904 | 55 | 161 | 3.0 | 12.0 | 0.00 | 0.01 | 0.00 | 69 | 1016.1 |
| 20260507200404 | 55 | 126 | 5.0 | 10.0 | 0.00 | 0.01 | 0.00 | 69 | 1016.0 |
| 20260507195905 | 55 | 125 | 7.0 | 10.0 | 0.00 | 0.01 | 0.00 | 68 | 1015.9 |
| 20260507194404 | 56 | 131 | 5.0 | 12.0 | 0.00 | 0.01 | 0.00 | 66 | 1015.8 |
| 20260507193903 | 56 | 154 | 5.0 | 10.0 | 0.00 | 0.01 | 0.00 | 65 | 1015.8 |
| 20260507193403 | 56 | 126 | 5.0 | 10.0 | 0.00 | 0.01 | 0.00 | 65 | 1015.7 |
| 20260507192904 | 56 | 131 | 4.0 | 9.0 | 0.00 | 0.01 | 0.00 | 64 | 1015.7 |
| 20260507192404 | 56 | 127 | 3.0 | 8.0 | 0.00 | 0.01 | 0.00 | 64 | 1015.7 |
| 20260507191903 | 56 | 120 | 4.0 | 8.0 | 0.00 | 0.01 | 0.00 | 64 | 1015.8 |
| 20260507190904 | 57 | 129 | 3.0 | 10.0 | 0.00 | 0.01 | 0.00 | 63 | 1015.6 |
| 20260507185905 | 57 | 130 | 5.0 | 10.0 | 0.00 | 0.01 | 0.00 | 63 | 1015.6 |
| 20260507185405 | 57 | 145 | 4.0 | 12.0 | 0.00 | 0.01 | 0.00 | 62 | 1015.6 |
| 20260507184905 | 57 | 131 | 4.0 | 12.0 | 0.00 | 0.01 | 0.00 | 62 | 1015.6 |
| 20260507183905 | 58 | 124 | 4.0 | 8.0 | 0.00 | 0.01 | 0.00 | 61 | 1015.4 |
| 20260507183405 | 58 | 123 | 3.0 | 9.0 | 0.00 | 0.01 | 0.00 | 60 | 1015.4 |
| 20260507182905 | 59 | 114 | 5.0 | 9.0 | 0.00 | 0.01 | 0.00 | 59 | 1015.4 |
| 20260507182406 | 59 | 127 | 3.0 | 9.0 | 0.00 | 0.01 | 0.00 | 58 | 1015.5 |
| 20260507181905 | 59 | 133 | 3.0 | 7.0 | 0.00 | 0.01 | 0.00 | 58 | 1015.4 |
| 20260507180905 | 60 | 133 | 3.0 | 8.0 | 0.00 | 0.01 | 0.00 | 55 | 1015.2 |
| 20260507180407 | 61 | 123 | 5.0 | 8.0 | 0.00 | 0.01 | 0.00 | 54 | 1015.2 |
| 20260507175905 | 61 | 120 | 5.0 | 8.0 | 0.00 | 0.01 | 0.00 | 52 | 1015.2 |
| 20260507175405 | 62 | 117 | 5.0 | 8.0 | 0.00 | 0.01 | 0.00 | 52 | 1015.1 |
| 20260507174905 | 62 | 124 | 3.0 | 8.0 | 0.00 | 0.01 | 0.00 | 51 | 1015.1 |
| 20260507174405 | 63 | 136 | 4.0 | 7.0 | 0.00 | 0.01 | 0.00 | 49 | 1015.1 |
| 20260507173905 | 64 | 150 | 2.0 | 10.0 | 0.00 | 0.01 | 0.00 | 48 | 1015.2 |
| 20260507173405 | 65 | 133 | 5.0 | 10.0 | 0.00 | 0.01 | 0.00 | 47 | 1015.3 |
| 20260507172905 | 66 | 125 | 5.0 | 10.0 | 0.00 | 0.01 | 0.00 | 46 | 1015.2 |
| 20260507172405 | 66 | 145 | 4.0 | 8.0 | 0.00 | 0.01 | 0.00 | 45 | 1015.2 |
| 20260507171905 | 66 | 136 | 3.0 | 9.0 | 0.00 | 0.01 | 0.00 | 46 | 1015.2 |
| 20260507171405 | 66 | 139 | 3.0 | 10.0 | 0.00 | 0.01 | 0.00 | 46 | 1015.1 |
| 20260507170905 | 66 | 163 | 5.0 | 10.0 | 0.00 | 0.01 | 0.00 | 45 | 1015.1 |
| 20260507170405 | 66 | 125 | 5.0 | 10.0 | 0.00 | 0.01 | 0.00 | 44 | 1015.1 |
| 20260507165905 | 65 | 118 | 5.0 | 10.0 | 0.00 | 0.01 | 0.00 | 46 | 1015.2 |
| 20260507164907 | 65 | 160 | 5.0 | 12.0 | 0.00 | 0.01 | 0.00 | 45 | 1015.2 |
| 20260507164404 | 65 | 121 | 3.0 | 12.0 | 0.00 | 0.01 | 0.00 | 47 | 1015.1 |
| 20260507163905 | 65 | 144 | 5.0 | 12.0 | 0.00 | 0.01 | 0.00 | 46 | 1015.2 |
| 20260507163405 | 65 | 129 | 5.0 | 12.0 | 0.00 | 0.01 | 0.00 | 46 | 1015.1 |
| 20260507162404 | 67 | 133 | 3.0 | 12.0 | 0.00 | 0.01 | 0.00 | 44 | 1015.2 |
| 20260507161905 | 67 | 143 | 6.0 | 13.0 | 0.00 | 0.01 | 0.00 | 43 | 1015.2 |
| 20260507161405 | 67 | 120 | 6.0 | 13.0 | 0.00 | 0.01 | 0.00 | 44 | 1015.2 |
| 20260507160405 | 66 | 146 | 2.0 | 12.0 | 0.00 | 0.01 | 0.00 | 44 | 1015.1 |
| 20260507155905 | 66 | 129 | 6.0 | 12.0 | 0.00 | 0.01 | 0.00 | 46 | 1015.2 |
| 20260507155405 | 66 | 130 | 6.0 | 12.0 | 0.00 | 0.01 | 0.00 | 46 | 1015.1 |
| 20260507154405 | 66 | 199 | 4.0 | 12.0 | 0.00 | 0.01 | 0.00 | 42 | 1015.1 |
| 20260507153905 | 66 | 128 | 5.0 | 12.0 | 0.00 | 0.01 | 0.00 | 42 | 1015.2 |
| 20260507153405 | 67 | 148 | 6.0 | 10.0 | 0.00 | 0.01 | 0.00 | 42 | 1015.3 |
| 20260507152905 | 66 | 129 | 3.0 | 9.0 | 0.00 | 0.01 | 0.00 | 44 | 1015.4 |
| 20260507152405 | 66 | 163 | 6.0 | 10.0 | 0.00 | 0.01 | 0.00 | 44 | 1015.5 |
| 20260507151405 | 67 | 124 | 5.0 | 10.0 | 0.00 | 0.01 | 0.00 | 45 | 1015.5 |
| 20260507150405 | 67 | 151 | 3.0 | 10.0 | 0.00 | 0.01 | 0.00 | 42 | 1015.6 |
| 20260507145905 | 67 | 114 | 5.0 | 10.0 | 0.00 | 0.01 | 0.00 | 42 | 1015.7 |
| 20260507145405 | 66 | 172 | 1.0 | 10.0 | 0.00 | 0.01 | 0.00 | 46 | 1015.7 |
| 20260507144906 | 65 | 167 | 3.0 | 12.0 | 0.00 | 0.01 | 0.00 | 43 | 1015.8 |
| 20260507144405 | 65 | 133 | 3.0 | 12.0 | 0.00 | 0.01 | 0.00 | 43 | 1015.8 |
| 20260507142904 | 65 | 142 | 5.0 | 10.0 | 0.00 | 0.01 | 0.00 | 44 | 1015.8 |
| 20260507142405 | 65 | 129 | 6.0 | 10.0 | 0.00 | 0.01 | 0.00 | 44 | 1015.8 |
| 20260507141905 | 64 | 47 | 3.0 | 12.0 | 0.00 | 0.01 | 0.00 | 47 | 1015.8 |
| 20260507141405 | 63 | 146 | 6.0 | 12.0 | 0.00 | 0.01 | 0.00 | 46 | 1015.9 |
| 20260507140904 | 62 | 176 | 2.0 | 9.0 | 0.00 | 0.01 | 0.00 | 48 | 1015.8 |
| 20260507140406 | 61 | 101 | 5.0 | 9.0 | 0.00 | 0.01 | 0.00 | 48 | 1015.9 |
| 20260507135905 | 60 | 132 | 1.0 | 8.0 | 0.00 | 0.01 | 0.00 | 52 | 1015.9 |
| 20260507135404 | 60 | 141 | 3.0 | 8.0 | 0.00 | 0.01 | 0.00 | 52 | 1015.9 |
| 20260507134405 | 60 | 129 | 3.0 | 9.0 | 0.00 | 0.01 | 0.00 | 50 | 1016.1 |
| 20260507133905 | 60 | 134 | 5.0 | 9.0 | 0.00 | 0.01 | 0.00 | 49 | 1016.1 |
| 20260507133404 | 61 | 128 | 3.0 | 10.0 | 0.00 | 0.01 | 0.00 | 49 | 1016.0 |
| 20260507132905 | 62 | 166 | 3.0 | 10.0 | 0.00 | 0.01 | 0.00 | 48 | 1016.1 |
| 20260507132405 | 62 | 173 | 4.0 | 9.0 | 0.00 | 0.01 | 0.00 | 47 | 1016.1 |
| 20260507131906 | 62 | 165 | 4.0 | 10.0 | 0.00 | 0.01 | 0.00 | 49 | 1016.0 |
| 20260507131405 | 61 | 64 | 3.0 | 10.0 | 0.00 | 0.01 | 0.00 | 52 | 1016.0 |
| 20260507130905 | 61 | 140 | 4.0 | 12.0 | 0.00 | 0.01 | 0.00 | 51 | 1016.0 |
| 20260507125904 | 59 | 111 | 4.0 | 12.0 | 0.00 | 0.01 | 0.00 | 53 | 1016.1 |
| 20260507125405 | 59 | 135 | 2.0 | 9.0 | 0.00 | 0.01 | 0.00 | 55 | 1016.0 |
| 20260507124905 | 58 | 153 | 1.0 | 7.0 | 0.00 | 0.01 | 0.00 | 58 | 1016.0 |
| 20260507124406 | 57 | 160 | 2.0 | 7.0 | 0.00 | 0.01 | 0.00 | 56 | 1016.0 |
| 20260507123905 | 57 | 156 | 2.0 | 7.0 | 0.00 | 0.01 | 0.00 | 58 | 1016.0 |
| 20260507123405 | 57 | 135 | 2.0 | 7.0 | 0.00 | 0.01 | 0.00 | 57 | 1016.1 |
| 20260507122904 | 57 | 183 | 3.0 | 7.0 | 0.00 | 0.01 | 0.00 | 56 | 1016.2 |
| 20260507121904 | 58 | 150 | 3.0 | 8.0 | 0.00 | 0.01 | 0.00 | 56 | 1016.2 |
| 20260507121404 | 59 | 150 | 4.0 | 8.0 | 0.00 | 0.01 | 0.00 | 55 | 1016.3 |
| 20260507120905 | 59 | 132 | 3.0 | 8.0 | 0.00 | 0.01 | 0.00 | 54 | 1016.3 |
| 20260507120404 | 60 | 141 | 3.0 | 10.0 | 0.00 | 0.01 | 0.00 | 54 | 1016.3 |
| 20260507115905 | 61 | 129 | 3.0 | 10.0 | 0.00 | 0.01 | 0.00 | 54 | 1016.4 |
| 20260507115404 | 61 | 118 | 6.0 | 12.0 | 0.00 | 0.01 | 0.00 | 53 | 1016.4 |
| 20260507113905 | 62 | 125 | 5.0 | 12.0 | 0.00 | 0.01 | 0.00 | 51 | 1016.4 |
| 20260507113405 | 62 | 134 | 6.0 | 12.0 | 0.00 | 0.01 | 0.00 | 51 | 1016.4 |
| 20260507112405 | 61 | 96 | 5.0 | 12.0 | 0.00 | 0.01 | 0.00 | 54 | 1016.3 |
| 20260507111905 | 61 | 156 | 5.0 | 10.0 | 0.00 | 0.01 | 0.00 | 52 | 1016.4 |
| 20260507111405 | 60 | 193 | 3.0 | 8.0 | 0.00 | 0.01 | 0.00 | 56 | 1016.3 |
| 20260507110904 | 60 | 112 | 2.0 | 5.0 | 0.00 | 0.01 | 0.00 | 55 | 1016.4 |
| 20260507110405 | 60 | 186 | 2.0 | 6.0 | 0.00 | 0.01 | 0.00 | 54 | 1016.4 |
| 20260507105905 | 60 | 196 | 2.0 | 6.0 | 0.00 | 0.01 | 0.00 | 55 | 1016.4 |
| 20260507104904 | 60 | 183 | 3.0 | 10.0 | 0.00 | 0.01 | 0.00 | 53 | 1016.5 |
| 20260507104405 | 59 | 113 | 2.0 | 6.0 | 0.00 | 0.01 | 0.00 | 56 | 1016.5 |
| 20260507103905 | 59 | 145 | 2.0 | 8.0 | 0.00 | 0.01 | 0.00 | 55 | 1016.6 |
| 20260507103404 | 59 | 143 | 3.0 | 10.0 | 0.00 | 0.01 | 0.00 | 58 | 1016.7 |
| 20260507102905 | 58 | 146 | 3.0 | 10.0 | 0.00 | 0.01 | 0.00 | 59 | 1016.8 |
| 20260507102405 | 58 | 137 | 3.0 | 9.0 | 0.00 | 0.01 | 0.00 | 60 | 1016.7 |
| 20260507101905 | 58 | 155 | 4.0 | 9.0 | 0.00 | 0.01 | 0.00 | 62 | 1016.7 |
| 20260507101404 | 57 | 168 | 4.0 | 10.0 | 0.00 | 0.01 | 0.00 | 62 | 1016.7 |
| 20260507100905 | 57 | 145 | 5.0 | 10.0 | 0.00 | 0.01 | 0.00 | 64 | 1016.7 |
| 20260507100405 | 57 | 190 | 1.0 | 9.0 | 0.00 | 0.01 | 0.00 | 66 | 1016.6 |
| 20260507095904 | 56 | 96 | 5.0 | 9.0 | 0.00 | 0.01 | 0.00 | 65 | 1016.6 |
| 20260507094905 | 56 | 149 | 5.0 | 9.0 | 0.00 | 0.01 | 0.00 | 67 | 1016.9 |
| 20260507092904 | 54 | 145 | 2.0 | 12.0 | 0.00 | 0.01 | 0.00 | 70 | 1016.9 |
| 20260507092405 | 54 | 138 | 5.0 | 12.0 | 0.00 | 0.01 | 0.00 | 71 | 1016.9 |
| 20260507091905 | 53 | 170 | 3.0 | 8.0 | 0.00 | 0.01 | 0.00 | 73 | 1017.0 |
| 20260507090905 | 53 | 205 | 2.0 | 5.0 | 0.00 | 0.01 | 0.00 | 75 | 1016.9 |
| 20260507090404 | 52 | 132 | 1.0 | 6.0 | 0.00 | 0.01 | 0.00 | 76 | 1017.0 |
| 20260507085404 | 52 | 172 | 2.0 | 5.0 | 0.00 | 0.01 | 0.00 | 75 | 1017.0 |
| 20260507084905 | 52 | 171 | 2.0 | 7.0 | 0.00 | 0.01 | 0.00 | 75 | 1016.9 |
| 20260507084405 | 52 | 136 | 3.0 | 7.0 | 0.00 | 0.01 | 0.00 | 75 | 1016.9 |
| 20260507083904 | 52 | 123 | 3.0 | 7.0 | 0.00 | 0.01 | 0.00 | 77 | 1017.0 |
| 20260507082905 | 52 | 130 | 4.0 | 8.0 | 0.00 | 0.01 | 0.00 | 76 | 1017.0 |
| 20260507082404 | 52 | 114 | 1.0 | 9.0 | 0.00 | 0.01 | 0.00 | 78 | 1017.0 |
| 20260507081905 | 52 | 144 | 4.0 | 9.0 | 0.00 | 0.01 | 0.00 | 78 | 1017.1 |
| 20260507080904 | 51 | 132 | 4.0 | 8.0 | 0.00 | 0.01 | 0.00 | 81 | 1017.0 |
| 20260507080405 | 50 | 137 | 3.0 | 8.0 | 0.00 | 0.01 | 0.00 | 82 | 1017.0 |
| 20260507075405 | 49 | 171 | 2.0 | 6.0 | 0.00 | 0.01 | 0.00 | 82 | 1016.9 |
| 20260507074905 | 49 | 149 | 3.0 | 7.0 | 0.00 | 0.01 | 0.00 | 83 | 1016.8 |
| 20260507074404 | 49 | 146 | 2.0 | 7.0 | 0.00 | 0.01 | 0.00 | 83 | 1016.8 |
| 20260507073904 | 49 | 142 | 2.0 | 5.0 | 0.00 | 0.01 | 0.00 | 83 | 1016.8 |
| 20260507073405 | 49 | 186 | 2.0 | 7.0 | 0.00 | 0.01 | 0.00 | 84 | 1016.8 |
| 20260507072905 | 48 | 119 | 2.0 | 7.0 | 0.00 | 0.01 | 0.00 | 85 | 1016.8 |
| 20260507072405 | 48 | 130 | 3.0 | 7.0 | 0.00 | 0.01 | 0.00 | 86 | 1016.7 |
| 20260507071905 | 48 | 145 | 1.0 | 3.0 | 0.00 | 0.01 | 0.00 | 86 | 1016.6 |
| 20260507071404 | 47 | 107 | 1.0 | 3.0 | 0.00 | 0.01 | 0.00 | 86 | 1016.7 |
| 20260507070905 | 47 | 141 | 2.0 | 3.0 | 0.00 | 0.01 | 0.00 | 86 | 1016.7 |
| 20260507070405 | 47 | 144 | 1.0 | 3.0 | 0.00 | 0.01 | 0.00 | 87 | 1016.6 |
| 20260507065904 | 47 | 147 | 1.0 | 3.0 | 0.00 | 0.01 | 0.00 | 88 | 1016.7 |
| 20260507064905 | 46 | 111 | 1.0 | 3.0 | 0.00 | 0.01 | 0.00 | 88 | 1016.5 |
| 20260507064405 | 46 | 124 | 1.0 | 3.0 | 0.00 | 0.01 | 0.00 | 88 | 1016.6 |
| 20260507063905 | 46 | 108 | 1.0 | 3.0 | 0.00 | 0.01 | 0.00 | 89 | 1016.5 |
| 20260507063404 | 46 | 145 | 1.0 | 3.0 | 0.00 | 0.01 | 0.00 | 89 | 1016.5 |
| 20260507062904 | 46 | 79 | 0.0 | 2.0 | 0.00 | 0.01 | 0.00 | 90 | 1016.5 |
| 20260507062405 | 45 | 74 | 1.0 | 3.0 | 0.00 | 0.01 | 0.00 | 90 | 1016.4 |
| 20260507060905 | 45 | 69 | 1.0 | 6.0 | 0.00 | 0.01 | 0.00 | 89 | 1016.3 |